STARLINK-1623, 46129

Orbit data source: Space-Track

STARLINK-1623, 46129 is a payload satellite owned by SpaceX/Seattle (US) in LEO that was launched on Tue, 18 Aug 2020 UTC via an FALCON 9 launch vehicle from the Air Force Eastern Test Range (AFETR). Payload-class satellites include a variety of spacecraft equipped with specific instruments for various scientific and technological missions. These include communications satellites like Starlink; space stations such as the ISS; scientific satellites like the Hubble; Earth observation satellites from companies like Planet Labs, Umbra, and HawkEye 360; GPS; miniature CubeSats for education and research; and military/defense satellites.

Loading next visibility...
Identifier
46129, 2020-057N
Orbit
LEO
Country
Flag of USUS
Related business
Manufacturer
SpaceX/Seattle
Mission
Operational Commercial Communications
Bus & Motor
STARLINK, Unknown motor
Mass
260 kg wet, ~248 kg dry
Launch date (UTC)
2020-08-18 (5 years ago)
Launch vehicle
FALCON 9
Launch site
Air Force Eastern Test Range (AFETR)
Object type
Payload
Rocket body
Debris
Shape & HBR
Box + 1 Pan, 10.1 m
Radar Cross Section
13.562 m², Large (>1 m²)

Expand to show TLE details & history
Last TLE update: 14 hours ago

TLE from 14 hours ago
0 STARLINK-1623
1 46129U 20057N   25343.22159860  .00002195  00000-0  16627-3 0  9998
2 46129  53.0547 322.7468 0001644  92.0554 268.0623 15.06392908292991
Epoch: 2025-12-09T05:19Z
TLE epoch observation values (Epoch: 2025-12-09T05:19:06.119Z)
Latitude
-0.00002°
Longitude
164.7619°
Altitude
548.151 km
Speed
7.589 km/s
True Right ascension
21h 30m 59s
True Declination
0° 00' 00"
Sunlit
Object was in daylight at epoch
Visualization orbit readout
Latitude
Unknown
Longitude
Unknown
Altitude
Unknown
Speed
Unknown
Apparent Right ascension
Unknown
Apparent Declination
Unknown
Sunlit
N/A
Visualization observer readout
Local Sidereal Time
17:08:20
Azimuth
Unknown
Elevation
Unknown
Doppler factor
Unknown
Orbital elements
Apogee altitude
548.643 km
Perigee altitude
546.365 km
Semi-major axis
6,925.641 km
Eccentricity
0.00016
Inclination
53.0547°
RAAN
322.7468°
Arg. of periapsis
92.0554°
True anomaly
268.04347°
Mean anomaly
268.0623°
Eccentric anomaly
268.05289°
Mean motion
3.76576 °/min
Orbital period
95.6 mins
BSTAR
0.00016627
Loading maneuver chart data...
Computing Atmospheric mass density...
Loading historical data...
Loading historical data...
Loading historical data...
Loading historical data...
Loading historical data...
Loading historical data...
Loading historical data...

Documentation

Showing up to 5 results
|